LKPO Weather Reports


time (UTC)temp
F
wind
direction
speed
knots
gust
knots
rain 1hr
in
rain 24hr
in
rain mn
in
humidity
%
barometer
mb
20260508042325 48 290 1.7 0.0 0.00 0.00 0.00 93
20260508032123 52 330 4.3 0.0 0.00 0.00 0.00 87
20260508022106 54 330 4.3 0.0 0.00 0.00 0.00 87
20260508012223 54 330 6.1 0.0 0.00 0.00 0.00 87
20260508002122 55 340 6.1 0.0 0.00 0.00 0.00 76
20260507232123 57 10 4.3 0.0 0.00 0.00 0.00 76
20260507222609 57 330 6.1 0.0 0.00 0.00 0.00 76
20260507222424 57 330 6.1 0.0 0.00 0.00 0.00 76
20260507212124 57 310 1.7 0.0 0.00 0.00 0.00 76
20260507202125 59 140 6.1 0.0 0.00 0.00 0.00 72
20260507192227 63 260 6.1 0.0 0.00 0.00 0.00 55
20260507182123 64 270 6.1 0.0 0.00 0.00 0.00 52
20260507172124 70 240 6.1 0.0 0.00 0.00 0.00 40
20260507162425 72 210 4.3 0.0 0.00 0.00 0.00 35
20260507152125 68 150 12.2 0.0 0.00 0.00 0.00 42
20260507142125 68 170 10.4 0.0 0.00 0.00 0.00 45
20260507132225 70 180 12.2 0.0 0.00 0.00 0.00 43
20260507122124 68 190 12.2 0.0 0.00 0.00 0.00 49
20260507112140 66 190 10.4 0.0 0.00 0.00 0.00 52
20260507102324 66 190 7.8 0.0 0.00 0.00 0.00 52
20260507092124 64 160 4.3 0.0 0.00 0.00 0.00 55
20260507082123 63 280 7.8 0.0 0.00 0.00 0.00 63
20260507072124 63 280 12.2 0.0 0.00 0.00 0.00 63
20260507062123 61 300 1.7 0.0 0.00 0.00 0.00 67
20260507052123 57 130 4.3 0.0 0.00 0.00 0.00 76